Location: Monteux
(44.0348°N, 4.9972°E)
Time: 21:53:22
(UTC+00:00)

Cosmos 2341 Rocket - Pass Details

Date: 25 April 2021
Orbit: 969 x 1003 km, 82.9° (Epoch: 16 May)

Event Time Altitude Azimuth Distance (km) Brightness Sun altitude
Rises 00:19:44 0° 350° (N) 3,722 8.0 -32.0°
Reaches altitude 10° 00:22:16 10° 349° (N) 2,773 7.1 -31.9°
Enters shadow 00:27:57 70° 320° (NW) 1,062 4.1 -31.6°
